2022/11/25 00:00:00, 0.0, 5.3
2022/11/25 00:10:00, 0.0, 5.5
2022/11/25 00:20:00, 0.0, 5.8
2022/11/25 00:30:00, 0.0, 5.8
2022/11/25 00:40:00, 0.1, 6.0
2022/11/25 00:50:00, 0.2, 5.4
2022/11/25 01:00:00, 0.1, 5.2
2022/11/25 01:10:00, 0.1, 5.0
2022/11/25 01:20:00, 0.2, 5.0
2022/11/25 01:30:00, 0.1, 4.9
2022/11/25 01:40:00, 0.0, 4.5
2022/11/25 01:50:00, 0.2, 4.3
2022/11/25 02:00:00, 0.2, 4.4
2022/11/25 02:10:00, 0.2, 5.1
2022/11/25 02:20:00, 0.1, 5.2
2022/11/25 02:30:00, 0.1, 4.6
2022/11/25 02:40:00, 0.0, 4.3
2022/11/25 02:50:00, 0.2, 4.1
2022/11/25 03:00:00, 0.2, 4.6
2022/11/25 03:10:00, 0.1, 5.0
2022/11/25 03:20:00, 0.1, 5.1
2022/11/25 03:30:00, 0.1, 5.2
2022/11/25 03:40:00, 0.1, 5.3
2022/11/25 03:50:00, 0.1, 4.8
2022/11/25 04:00:00, 0.1, 4.5
2022/11/25 04:10:00, 0.1, 4.8
2022/11/25 04:20:00, 0.1, 5.0
2022/11/25 04:30:00, 0.1, 4.7
2022/11/25 04:40:00, 0.0, 4.6
2022/11/25 04:50:00, 0.1, 4.9
2022/11/25 05:00:00, 0.1, 4.9
2022/11/25 05:10:00, 0.1, 5.0
2022/11/25 05:20:00, 0.1, 5.3
2022/11/25 05:30:00, 0.1, 5.0
2022/11/25 05:40:00, 0.1, 4.0
2022/11/25 05:50:00, 0.1, 4.6
2022/11/25 06:00:00, 0.1, 4.7
2022/11/25 06:10:00, 0.1, 4.6
2022/11/25 06:20:00, 0.1, 4.3
2022/11/25 06:30:00, 0.2, 3.9
2022/11/25 06:40:00, 0.2, 3.4
2022/11/25 06:50:00, 0.2, 3.6
2022/11/25 07:00:00, 0.2, 3.2
2022/11/25 07:10:00, 0.2, 3.5
2022/11/25 07:20:00, 0.2, 3.6
2022/11/25 07:30:00, 0.2, 3.7
2022/11/25 07:40:00, 0.1, 3.4
2022/11/25 07:50:00, 0.1, 3.6
2022/11/25 08:00:00, 0.2, 3.9
2022/11/25 08:10:00, 0.2, 4.1
2022/11/25 08:20:00, 0.2, 4.2
2022/11/25 08:30:00, 0.2, 4.2
2022/11/25 08:40:00, 0.2, 6.8
2022/11/25 08:50:00, 0.2,10.0
2022/11/25 09:00:00, 0.3,11.2
2022/11/25 09:10:00, 0.2, 9.8
2022/11/25 09:20:00, 0.1, 9.8
2022/11/25 09:30:00, 0.1,12.1
2022/11/25 09:40:00, 0.1, 9.8
2022/11/25 09:50:00, 0.2,10.8
2022/11/25 10:00:00, 0.1,12.1
2022/11/25 10:10:00, 0.0,14.8
2022/11/25 10:20:00, 0.0,13.1
2022/11/25 10:30:00, 0.1,14.2
2022/11/25 10:40:00, 0.2,15.5
2022/11/25 10:50:00, 0.1,14.9
2022/11/25 11:00:00, 0.1,14.6
2022/11/25 11:10:00, 0.2,13.9
2022/11/25 11:20:00, 0.3,16.7
2022/11/25 11:30:00, 0.2,16.8
2022/11/25 11:40:00, 0.2,17.0
2022/11/25 11:50:00, 0.0,17.9
2022/11/25 12:00:00, 0.0,17.2
2022/11/25 12:10:00, 0.0,17.3
2022/11/25 12:20:00, 0.0,18.0
2022/11/25 12:30:00, 0.0,19.5
2022/11/25 12:40:00, 0.0,21.6
2022/11/25 12:50:00, 0.0,21.5
2022/11/25 13:00:00, 0.0,22.6
2022/11/25 13:10:00, 0.0,23.5
2022/11/25 13:20:00, 0.0,22.7
2022/11/25 13:30:00, 0.0,22.2
2022/11/25 13:40:00, 0.0,22.2
2022/11/25 13:50:00, 0.0,23.5
2022/11/25 14:00:00, 0.0,23.4
2022/11/25 14:10:00, 0.0,22.6
2022/11/25 14:20:00, 0.0,22.8
2022/11/25 14:30:00, 0.0,23.7
2022/11/25 14:40:00, 0.0,21.4
2022/11/25 14:50:00, 0.1,20.7
2022/11/25 15:00:00, 0.1,20.2
2022/11/25 15:10:00, 0.3,19.9
2022/11/25 15:20:00, 0.2,18.1
2022/11/25 15:30:00, 0.0,16.3
2022/11/25 15:40:00, 0.0,14.6
2022/11/25 15:50:00, 0.0,15.6
2022/11/25 16:00:00, 0.0,14.1
2022/11/25 16:10:00, 0.0,13.8
2022/11/25 16:20:00, 0.0,12.4
2022/11/25 16:30:00, 0.0,11.7
2022/11/25 16:40:00, 0.0,10.7
2022/11/25 16:50:00, 0.0,10.3
2022/11/25 17:00:00, 0.0, 8.8
2022/11/25 17:10:00, 0.0, 8.7
2022/11/25 17:20:00, 0.0, 8.8
2022/11/25 17:30:00, 0.0, 8.7
2022/11/25 17:40:00, 0.0, 8.6
2022/11/25 17:50:00, 0.0, 7.8
2022/11/25 18:00:00, 0.0, 8.1
2022/11/25 18:10:00, 0.0, 8.3
2022/11/25 18:20:00, 0.0, 8.2
2022/11/25 18:30:00, 0.0, 8.0
2022/11/25 18:40:00, 0.0, 7.8
2022/11/25 18:50:00, 0.0, 7.3
2022/11/25 19:00:00, 0.0, 7.9
2022/11/25 19:10:00, 0.0, 7.9
2022/11/25 19:20:00, 0.0, 7.4
2022/11/25 19:30:00, 0.0, 7.2
2022/11/25 19:40:00, 0.0, 7.1
2022/11/25 19:50:00, 0.0, 7.5
2022/11/25 20:00:00, 0.0, 7.3
2022/11/25 20:10:00, 0.0, 6.9
2022/11/25 20:20:00, 0.0, 6.7
2022/11/25 20:30:00, 0.0, 6.3
2022/11/25 20:40:00, 0.0, 6.5
2022/11/25 20:50:00, 0.0, 6.7
2022/11/25 21:00:00, 0.0, 6.7
2022/11/25 21:10:00, 0.0, 7.1
2022/11/25 21:20:00, 0.0, 7.2
2022/11/25 21:30:00, 0.0, 7.2
2022/11/25 21:40:00, 0.0, 7.1
2022/11/25 21:50:00, 0.0, 7.3
2022/11/25 22:00:00, 0.0, 7.6
2022/11/25 22:10:00, 0.0, 7.9
2022/11/25 22:20:00, 0.0, 7.6
2022/11/25 22:30:00, 0.0, 7.8
2022/11/25 22:40:00, 0.0, 7.4
2022/11/25 22:50:00, 0.0, 7.8
2022/11/25 23:00:00, 0.0, 8.1
2022/11/25 23:10:00, 0.0, 8.2
2022/11/25 23:20:00, 0.0, 8.1
2022/11/25 23:30:00, 0.0, 8.1
2022/11/25 23:40:00, 0.0, 8.1
2022/11/25 23:50:00, 0.0, 8.4
